When you browse on this site, cookies collect data to enhance your experience and personalize the content and advertising you see.
Visit our Privacy Policy to learn more. By continuing to use the site, you agree to this use of cookies and data.
  • In Hungary
  • List of Countries
  • For 7 days
  • Water Temperature
  • Satellite Maps
  • Weather Map
  • News
  • Weather Widgets
  • user-avatar
    Login

    Hourly Weather Karasburg

    Today, 11 December, Tuesday

    Time Temperature Precipitation Wind Pressure Humidity
    00:00 +25°C° 0 mm 2 mps 681 mmHg 17%
    01:00 +24°C° 0 mm 1 mps 681 mmHg 20%
    02:00 +23°C° 0 mm 1 mps 680 mmHg 22%
    03:00 +23°C° 0 mm 1 mps 680 mmHg 24%
    04:00 +22°C° 0 mm 1 mps 680 mmHg 26%
    05:00 +24°C° 0 mm 1 mps 681 mmHg 23%
    06:00 +26°C° 0 mm 2 mps 681 mmHg 19%
    07:00 +28°C° 0 mm 3 mps 682 mmHg 12%
    08:00 +30°C° 0 mm 3 mps 682 mmHg 11%
    09:00 +31°C° 0 mm 3 mps 682 mmHg 9%
    10:00 +34°C° 0 mm 3 mps 682 mmHg 8%
    11:00 +35°C° 0 mm 3 mps 682 mmHg 8%
    12:00 +36°C° 0 mm 3 mps 681 mmHg 7%
    13:00 +37°C° 0 mm 3 mps 681 mmHg 7%
    14:00 +37°C° 0 mm 4 mps 681 mmHg 6%
    15:00 +38°C° 0 mm 4 mps 680 mmHg 6%
    16:00 +39°C° 0 mm 5 mps 680 mmHg 6%
    17:00 +36°C° 0 mm 7 mps 680 mmHg 10%
    18:00 +34°C° 0 mm 8 mps 679 mmHg 14%
    19:00 +32°C° 0 mm 9 mps 679 mmHg 18%
    20:00 +29°C° 0 mm 8 mps 680 mmHg 21%
    21:00 +27°C° 0 mm 8 mps 680 mmHg 23%
    22:00 +24°C° 0 mm 7 mps 680 mmHg 25%
    23:00 +23°C° 0 mm 6 mps 680 mmHg 26%

    Tomorrow, 12 December, Wednesday

    Time Temperature Precipitation Wind Pressure Humidity
    00:00 +22°C° 0 mm 5 mps 680 mmHg 26%
    01:00 +22°C° 0 mm 5 mps 680 mmHg 27%
    02:00 +21°C° 0 mm 5 mps 680 mmHg 28%
    03:00 +20°C° 0 mm 4 mps 680 mmHg 30%
    04:00 +19°C° 0 mm 4 mps 679 mmHg 32%
    05:00 +20°C° 0 mm 4 mps 680 mmHg 29%
    06:00 +21°C° 0 mm 4 mps 680 mmHg 26%
    07:00 +21°C° 0 mm 4 mps 681 mmHg 24%
    08:00 +23°C° 0 mm 4 mps 681 mmHg 20%
    09:00 +26°C° 0 mm 4 mps 681 mmHg 17%
    10:00 +28°C° 0 mm 3 mps 681 mmHg 14%
    11:00 +29°C° 0 mm 4 mps 681 mmHg 13%
    12:00 +32°C° 0 mm 4 mps 681 mmHg 12%
    13:00 +33°C° 0 mm 4 mps 681 mmHg 11%
    14:00 +34°C° 0 mm 5 mps 681 mmHg 11%
    15:00 +34°C° 0 mm 6 mps 681 mmHg 12%
    16:00 +35°C° 0 mm 7 mps 680 mmHg 12%
    17:00 +33°C° 0 mm 7 mps 680 mmHg 17%
    18:00 +30°C° 0 mm 7 mps 680 mmHg 22%
    19:00 +28°C° 0 mm 8 mps 680 mmHg 26%
    20:00 +27°C° 0 mm 7 mps 681 mmHg 31%
    21:00 +24°C° 0 mm 7 mps 681 mmHg 36%
    22:00 +23°C° 0 mm 6 mps 681 mmHg 40%
    23:00 +22°C° 0 mm 5 mps 681 mmHg 44%

    Day after tomorrow, 13 December, Thursday

    Time Temperature Precipitation Wind Pressure Humidity
    00:00 +22°C° 0 mm 5 mps 681 mmHg 49%
    01:00 +21°C° 0 mm 4 mps 681 mmHg 53%
    02:00 +20°C° 0 mm 3 mps 681 mmHg 57%
    03:00 +19°C° 0 mm 3 mps 681 mmHg 61%
    04:00 +19°C° 0 mm 2 mps 680 mmHg 65%
    05:00 +19°C° 0 mm 2 mps 681 mmHg 61%
    06:00 +20°C° 0 mm 2 mps 681 mmHg 58%
    07:00 +21°C° 0 mm 2 mps 682 mmHg 55%
    08:00 +24°C° 0 mm 2 mps 682 mmHg 44%
    09:00 +26°C° 0 mm 2 mps 683 mmHg 34%
    10:00 +28°C° 0 mm 2 mps 683 mmHg 23%
    11:00 +30°C° 0 mm 2 mps 683 mmHg 20%
    12:00 +32°C° 0 mm 2 mps 682 mmHg 16%
    13:00 +34°C° 0 mm 2 mps 682 mmHg 13%
    14:00 +35°C° 0 mm 3 mps 682 mmHg 12%
    15:00 +36°C° 0 mm 4 mps 681 mmHg 11%
    16:00 +36°C° 0 mm 5 mps 681 mmHg 10%
    17:00 +35°C° 0 mm 5 mps 681 mmHg 10%
    18:00 +34°C° 0 mm 5 mps 681 mmHg 10%
    19:00 +33°C° 0 mm 5 mps 680 mmHg 11%
    20:00 +30°C° 0 mm 5 mps 681 mmHg 12%
    21:00 +29°C° 0 mm 5 mps 681 mmHg 14%
    22:00 +28°C° 0 mm 4 mps 681 mmHg 15%
    23:00 +26°C° 0 mm 4 mps 681 mmHg 19%

    14 December, Friday

    Time Temperature Precipitation Wind Pressure Humidity
    00:00 +25°C° 0 mm 4 mps 681 mmHg 23%
    01:00 +24°C° 0 mm 3 mps 680 mmHg 26%
    02:00 +22°C° 0 mm 3 mps 680 mmHg 29%
    03:00 +21°C° 0 mm 2 mps 680 mmHg 31%
    04:00 +21°C° 0 mm 2 mps 680 mmHg 34%
    05:00 +23°C° 0 mm 2 mps 681 mmHg 32%
    06:00 +23°C° 0 mm 2 mps 681 mmHg 30%
    07:00 +24°C° 0 mm 2 mps 682 mmHg 27%
    08:00 +27°C° 0 mm 2 mps 682 mmHg 23%
    09:00 +29°C° 0 mm 3 mps 682 mmHg 19%
    10:00 +31°C° 0 mm 3 mps 682 mmHg 14%
    11:00 +33°C° 0 mm 4 mps 682 mmHg 13%
    12:00 +35°C° 0 mm 4 mps 681 mmHg 12%
    13:00 +36°C° 0 mm 5 mps 681 mmHg 11%
    14:00 +36°C° 0 mm 6 mps 681 mmHg 10%
    15:00 +37°C° 0 mm 8 mps 681 mmHg 10%
    16:00 +37°C° 0 mm 9 mps 680 mmHg 9%
    17:00 +33°C° 0 mm 9 mps 681 mmHg 11%
    18:00 +31°C° 0 mm 9 mps 681 mmHg 13%
    19:00 +27°C° 0 mm 9 mps 681 mmHg 15%
    20:00 +24°C° 0 mm 8 mps 681 mmHg 18%
    21:00 +23°C° 0 mm 7 mps 682 mmHg 20%
    22:00 +22°C° 0 mm 6 mps 682 mmHg 22%
    23:00 +21°C° 0 mm 5 mps 682 mmHg 25%

    15 December, Saturday

    Time Temperature Precipitation Wind Pressure Humidity
    00:00 +20°C° 0 mm 5 mps 681 mmHg 28%
    01:00 +19°C° 0 mm 4 mps 681 mmHg 31%
    02:00 +18°C° 0 mm 3 mps 681 mmHg 34%
    03:00 +17°C° 0 mm 2 mps 681 mmHg 37%
    04:00 +18°C° 0 mm 1 mps 681 mmHg 40%
    05:00 +18°C° 0 mm 1 mps 682 mmHg 36%
    06:00 +19°C° 0 mm 1 mps 682 mmHg 32%
    07:00 +20°C° 0 mm 1 mps 683 mmHg 28%
    08:00 +23°C° 0 mm 1 mps 683 mmHg 22%
    09:00 +25°C° 0 mm 2 mps 683 mmHg 16%
    10:00 +28°C° 0 mm 2 mps 683 mmHg 10%
    11:00 +29°C° 0 mm 2 mps 683 mmHg 8%
    12:00 +31°C° 0 mm 1 mps 683 mmHg 6%
    13:00 +33°C° 0 mm 1 mps 682 mmHg 5%
    14:00 +35°C° 0 mm 2 mps 682 mmHg 4%
    15:00 +36°C° 0 mm 3 mps 682 mmHg 4%
    16:00 +37°C° 0 mm 4 mps 681 mmHg 4%
    17:00 +35°C° 0 mm 4 mps 681 mmHg 4%
    18:00 +34°C° 0 mm 4 mps 681 mmHg 5%
    19:00 +32°C° 0 mm 5 mps 681 mmHg 5%
    20:00 +30°C° 0 mm 4 mps 681 mmHg 8%
    21:00 +28°C° 0 mm 4 mps 681 mmHg 10%
    22:00 +27°C° 0 mm 4 mps 682 mmHg 13%
    23:00 +26°C° 0 mm 3 mps 681 mmHg 18%

    16 December, Sunday

    Time Temperature Precipitation Wind Pressure Humidity
    00:00 +25°C° 0 mm 3 mps 681 mmHg 23%
    01:00 +24°C° 0 mm 3 mps 681 mmHg 28%
    02:00 +23°C° 0 mm 2 mps 680 mmHg 31%
    03:00 +21°C° 0 mm 2 mps 680 mmHg 35%
    04:00 +21°C° 0 mm 1 mps 680 mmHg 38%
    05:00 +23°C° 0 mm 1 mps 681 mmHg 35%
    06:00 +24°C° 0 mm 1 mps 681 mmHg 31%
    07:00 +25°C° 0 mm 1 mps 682 mmHg 27%
    08:00 +28°C° 0 mm 2 mps 682 mmHg 22%
    09:00 +30°C° 0 mm 2 mps 682 mmHg 17%
    10:00 +34°C° 0 mm 3 mps 682 mmHg 12%
    11:00 +35°C° 0 mm 2 mps 682 mmHg 11%
    12:00 +37°C° 0 mm 2 mps 681 mmHg 9%
    13:00 +39°C° 0 mm 1 mps 681 mmHg 8%
    14:00 +39°C° 0 mm 2 mps 680 mmHg 8%
    15:00 +40°C° 0 mm 3 mps 680 mmHg 8%
    16:00 +42°C° 0 mm 4 mps 680 mmHg 8%
    17:00 +40°C° 0 mm 4 mps 679 mmHg 8%
    18:00 +39°C° 0 mm 5 mps 679 mmHg 9%
    19:00 +38°C° 0 mm 6 mps 679 mmHg 9%
    20:00 +35°C° 0 mm 5 mps 679 mmHg 10%
    21:00 +34°C° 0 mm 4 mps 679 mmHg 10%
    22:00 +33°C° 0 mm 3 mps 679 mmHg 11%
    23:00 +31°C° 0 mm 2 mps 679 mmHg 12%
    Show more